Regional Weather Roundup
Issued by NWS Midland/Odessa, TX

Skip options and go directly to product.
Home | Oldest Version | Next Version | Current Version | All | Text Only | Save Text | Print | Product List | Glossary On

Skip product version selection by date and time.   
830
ASUS44 KMAF 250101
RWRMAF
MIDLAND AREA WEATHER ROUNDUP
NATIONAL WEATHER SERVICE MIDLAND TX
700 PM CST FRI FEB 24 2017

...IN SOUTHWEST TEXAS AND SOUTHEAST NEW MEXICO...

CITY           SKY/WX    TMP DP  RH WIND       PRES   REMARKS
ALPINE         CLEAR     61  -6   6 W15G24    30.03R
ANDREWS        FAIR      60   1   9 W9        29.91R
ARTESIA        CLEAR     57   7  13 SW12      29.91R
BIG SPRING     CLEAR     58  18  20 E3        29.93R
CARLSBAD       CLEAR     60  -4   7 W21       29.90R
DRYDEN           N/A     70   9   9 N8        29.87R
FORT STOCKTON  CLEAR     65  -1   7 NW12      29.91R
GUAD PASS      CLEAR     51   3  14 W30G38      N/A
HOBBS          CLEAR     55   1  11 NW8       29.92R
MARFA          CLEAR     57  -4   8 W13       30.01R
MIDLAND AIRPK  CLEAR     60  17  18 E8        29.91R
MIDLAND INTL   CLEAR     63   1   8 W12       29.90R
ODESSA         CLEAR     64  -2   7 W13       29.90R
PECOS          CLEAR     65   1   8 W15       29.91R
PRESIDIO       FAIR      73   4   7 NW6       29.92R
SEMINOLE       CLEAR     58  10  14 CALM      29.91R
SNYDER         CLEAR     55  24  31 NE7       29.94R
WINK           CLEAR     64   1   8 W15       29.90R
$$
...OTHER STATIONS IN TEXAS...

CITY           SKY/WX    TMP DP  RH WIND       PRES   REMARKS
ABILENE        CLEAR     53  27  36 NE7       29.97R
AMARILLO       CLEAR     36  15  42 NE12      30.00R WCI  28
AUSTIN         CLEAR     65  29  25 N10       29.89R
BROWNSVILLE    CLEAR     74  64  71 NE9       29.78R
CORPUS CHRISTI CLEAR     78  35  21 N18G24    29.80R
DALLAS FTW     CLEAR     57  30  35 NW14      29.95R
DEL RIO        CLEAR     74  19  12 NE6       29.83R
EL PASO        PTCLDY    59   5  11 W21       29.97R
HOUSTON INT    CLEAR     71  41  33 NW13      29.84R
LUBBOCK        CLEAR     49  22  34 E9        29.94R
SAN ANGELO     CLEAR     57  26  30 N10       29.91R
SAN ANTONIO    PTCLDY    70  25  18 N10       29.88R
WACO           CLEAR     55  39  54 N9        29.95R
WICHITA FALLS  NOT AVBL
$$
...OTHER LOCATIONS IN NEW MEXICO...

CITY           SKY/WX    TMP DP  RH WIND       PRES   REMARKS
ALAMAGORDO     CLEAR     55   1  11 SW15      29.96R
ALBUQUERQUE    PTCLDY    44  -2  14 W14G24    29.96R WCI  37
CANNON AFB     NOT AVBL
CLOVIS         CLEAR     45   1  16 NW9       29.93R WCI  40
HOLLOMAN AFB   CLEAR     56   4  12 SW12      29.97R
ROSWELL        CLEAR     58   1  10 W12         N/A
RUIDOSO        CLEAR     41   0  17 W8        29.97R WCI  36
SANTA FE       CLEAR     36 -10  13 W14G23    29.93R WCI  27
TRUTH OR CONSE PTCLDY    54   6  14 W15       29.93R
TUCUMCARI      CLEAR     42  13  30 NE14      29.92R WCI  35
$$

  • National Weather Service
  • Southern Region Headquarters
  • 819 Taylor Street, Room 10A06
  • Fort Worth, TX 76102
  • Page Author: NWS Fort Worth
  • Web Master: SR-SRH.Webmaster@noaa.gov
  •  
  • Page last modified: 30-Sep-2016 6:36 PM UTC
USA.gov is the U.S. government's official web portal to all federal, state and local government web resources and services.